"datetime","temp","dp","rain_mm","uv","mb"
"2014-06-19 00:00:00",10.4,9.6,0.0,0.0,1024.0
"2014-06-19 00:01:00",10.3,9.6,0.0,0.0,1024.1
"2014-06-19 00:02:00",10.3,9.5,0.0,0.0,1024.0
"2014-06-19 00:03:00",10.3,9.5,0.0,0.0,1024.0
"2014-06-19 00:04:00",10.3,9.5,0.0,0.0,1024.0
"2014-06-19 00:05:00",10.3,9.5,0.0,0.0,1024.0
"2014-06-19 00:06:00",10.3,9.5,0.0,0.0,1024.1
"2014-06-19 00:07:00",10.3,9.5,0.0,0.0,1024.1
"2014-06-19 00:08:00",10.3,9.5,0.0,0.0,1024.0
"2014-06-19 00:09:00",10.3,9.5,0.0,0.0,1024.0
"2014-06-19 00:10:00",10.3,9.5,0.0,0.0,1024.0
"2014-06-19 00:11:00",10.3,9.5,0.0,0.0,1023.9
"2014-06-19 00:12:00",10.3,9.5,0.0,0.0,1024.0
"2014-06-19 00:13:00",10.3,9.5,0.0,0.0,1024.0
"2014-06-19 00:14:00",10.3,9.5,0.0,0.0,1024.0
"2014-06-19 00:15:00",10.3,9.5,0.0,0.0,1024.0
"2014-06-19 00:16:00",10.3,9.5,0.0,0.0,1024.0
"2014-06-19 00:17:00",10.3,9.5,0.0,0.0,1024.0
"2014-06-19 00:18:00",10.2,9.5,0.0,0.0,1024.0
"2014-06-19 00:19:00",10.2,9.5,0.0,0.0,1024.0
"2014-06-19 00:20:00",10.2,9.5,0.0,0.0,1024.0
"2014-06-19 00:21:00",10.2,9.4,0.0,0.0,1024.0
"2014-06-19 00:22:00",10.2,9.4,0.0,0.0,1024.0
"2014-06-19 00:23:00",10.1,9.4,0.0,0.0,1024.0
"2014-06-19 00:24:00",10.1,9.3,0.0,0.0,1024.0
"2014-06-19 00:25:00",10.1,9.3,0.0,0.0,1024.0
"2014-06-19 00:26:00",10.1,9.3,0.0,0.0,1024.0
"2014-06-19 00:27:00",10.0,9.3,0.0,0.0,1024.0
"2014-06-19 00:28:00",10.0,9.2,0.0,0.0,1024.0
"2014-06-19 00:29:00",10.0,9.2,0.0,0.0,1024.0
"2014-06-19 00:30:00",9.9,9.2,0.0,0.0,1024.0
"2014-06-19 00:31:00",9.9,9.2,0.0,0.0,1024.0
"2014-06-19 00:32:00",9.9,9.2,0.0,0.0,1024.0
"2014-06-19 00:33:00",10.0,9.2,0.0,0.0,1024.0
"2014-06-19 00:34:00",10.0,9.2,0.0,0.0,1024.0
"2014-06-19 00:35:00",10.0,9.2,0.0,0.0,1024.0
"2014-06-19 00:36:00",9.9,9.2,0.0,0.0,1024.0
"2014-06-19 00:37:00",9.9,9.2,0.0,0.0,1024.0
"2014-06-19 00:38:00",9.9,9.1,0.0,0.0,1024.0
"2014-06-19 00:39:00",9.9,9.1,0.0,0.0,1024.0
"2014-06-19 00:40:00",9.8,9.1,0.0,0.0,1024.0
"2014-06-19 00:41:00",9.8,9.1,0.0,0.0,1024.0
"2014-06-19 00:42:00",9.8,9.2,0.0,0.0,1024.0
"2014-06-19 00:43:00",9.8,9.2,0.0,0.0,1024.0
"2014-06-19 00:44:00",9.8,9.0,0.0,0.0,1024.0
"2014-06-19 00:45:00",9.8,9.0,0.0,0.0,1024.0
"2014-06-19 00:46:00",9.8,9.2,0.0,0.0,1023.9
"2014-06-19 00:47:00",9.8,9.0,0.0,0.0,1023.9
"2014-06-19 00:48:00",9.8,9.0,0.0,0.0,1024.0
"2014-06-19 00:49:00",9.8,9.0,0.0,0.0,1024.0
"2014-06-19 00:50:00",9.8,9.0,0.0,0.0,1024.0
"2014-06-19 00:51:00",9.8,9.2,0.0,0.0,1023.9
"2014-06-19 00:52:00",9.8,9.2,0.0,0.0,1024.0
"2014-06-19 00:53:00",9.8,9.1,0.0,0.0,1024.0
"2014-06-19 00:54:00",9.8,9.1,0.0,0.0,1024.0
"2014-06-19 00:55:00",9.7,9.1,0.0,0.0,1023.9
"2014-06-19 00:56:00",9.7,9.1,0.0,0.0,1023.9
"2014-06-19 00:57:00",9.7,8.9,0.0,0.0,1024.0
"2014-06-19 00:58:00",9.6,8.9,0.0,0.0,1023.9
"2014-06-19 00:59:00",9.6,8.8,0.0,0.0,1024.0
"2014-06-19 01:00:00",9.6,9.0,0.0,0.0,1024.0
"2014-06-19 01:01:00",9.6,9.0,0.0,0.0,1024.0
"2014-06-19 01:02:00",9.6,9.0,0.0,0.0,1024.0
"2014-06-19 01:03:00",9.6,9.0,0.0,0.0,1023.9
"2014-06-19 01:04:00",9.6,9.0,0.0,0.0,1024.0
"2014-06-19 01:05:00",9.6,8.9,0.0,0.0,1023.9
"2014-06-19 01:06:00",9.6,8.9,0.0,0.0,1023.9
"2014-06-19 01:07:00",9.6,8.9,0.0,0.0,1023.9
"2014-06-19 01:08:00",9.6,9.0,0.0,0.0,1023.9
"2014-06-19 01:09:00",9.6,9.0,0.0,0.0,1024.0
"2014-06-19 01:10:00",9.6,9.0,0.0,0.0,1024.0
"2014-06-19 01:11:00",9.6,9.0,0.0,0.0,1024.0
"2014-06-19 01:12:00",9.7,9.1,0.0,0.0,1024.0
"2014-06-19 01:13:00",9.7,9.0,0.0,0.0,1024.0
"2014-06-19 01:14:00",9.6,9.0,0.0,0.0,1024.0
"2014-06-19 01:15:00",9.6,9.0,0.0,0.0,1024.0
"2014-06-19 01:16:00",9.6,8.9,0.0,0.0,1024.0
"2014-06-19 01:17:00",9.5,8.9,0.0,0.0,1024.0
"2014-06-19 01:18:00",9.5,8.9,0.0,0.0,1024.0
"2014-06-19 01:19:00",9.5,8.9,0.0,0.0,1024.0
"2014-06-19 01:20:00",9.5,8.9,0.0,0.0,1023.9
"2014-06-19 01:21:00",9.5,8.9,0.0,0.0,1023.9
"2014-06-19 01:22:00",9.5,8.9,0.0,0.0,1023.9
"2014-06-19 01:23:00",9.5,8.9,0.0,0.0,1023.9
"2014-06-19 01:24:00",9.5,8.9,0.0,0.0,1024.0
"2014-06-19 01:25:00",9.5,8.9,0.0,0.0,1023.9
"2014-06-19 01:26:00",9.5,8.9,0.0,0.0,1024.0
"2014-06-19 01:27:00",9.5,8.9,0.0,0.0,1023.9
"2014-06-19 01:28:00",9.5,8.9,0.0,0.0,1023.9
"2014-06-19 01:29:00",9.5,8.9,0.0,0.0,1023.9
"2014-06-19 01:30:00",9.5,8.9,0.0,0.0,1023.9
"2014-06-19 01:31:00",9.4,8.8,0.0,0.0,1023.9
"2014-06-19 01:32:00",9.4,8.8,0.0,0.0,1023.9
"2014-06-19 01:33:00",9.4,8.8,0.0,0.0,1023.9
"2014-06-19 01:34:00",9.4,8.8,0.0,0.0,1023.9
"2014-06-19 01:35:00",9.4,8.8,0.0,0.0,1023.9
"2014-06-19 01:36:00",9.4,8.8,0.0,0.0,1023.9
"2014-06-19 01:37:00",9.4,8.8,0.0,0.0,1023.9
"2014-06-19 01:38:00",9.4,8.8,0.0,0.0,1023.9
"2014-06-19 01:39:00",9.4,8.8,0.0,0.0,1023.9
"2014-06-19 01:40:00",9.4,8.8,0.0,0.0,1023.9
"2014-06-19 01:41:00",9.4,8.8,0.0,0.0,1023.9
"2014-06-19 01:42:00",9.4,8.8,0.0,0.0,1023.9
"2014-06-19 01:43:00",9.4,8.8,0.0,0.0,1023.8
"2014-06-19 01:44:00",9.4,8.8,0.0,0.0,1023.8
"2014-06-19 01:45:00",9.4,8.8,0.0,0.0,1023.8
"2014-06-19 01:46:00",9.3,8.7,0.0,0.0,1023.8
"2014-06-19 01:47:00",9.3,8.7,0.0,0.0,1023.8
"2014-06-19 01:48:00",9.3,8.7,0.0,0.0,1023.8
"2014-06-19 01:49:00",9.3,8.7,0.0,0.0,1023.8
"2014-06-19 01:50:00",9.3,8.7,0.0,0.0,1023.8
"2014-06-19 01:51:00",9.3,8.7,0.0,0.0,1023.8
"2014-06-19 01:52:00",9.3,8.7,0.0,0.0,1023.7
"2014-06-19 01:53:00",9.3,8.7,0.0,0.0,1023.8
"2014-06-19 01:54:00",9.3,8.7,0.0,0.0,1023.8
"2014-06-19 01:55:00",9.3,8.7,0.0,0.0,1023.8
"2014-06-19 01:56:00",9.3,8.7,0.0,0.0,1023.7
"2014-06-19 01:57:00",9.2,8.6,0.0,0.0,1023.8
"2014-06-19 01:58:00",9.2,8.6,0.0,0.0,1023.8
"2014-06-19 01:59:00",9.2,8.6,0.0,0.0,1023.8
"2014-06-19 02:00:00",9.2,8.6,0.0,0.0,1023.7
"2014-06-19 02:01:00",9.2,8.6,0.0,0.0,1023.7
"2014-06-19 02:02:00",9.3,8.7,0.0,0.0,1023.7
"2014-06-19 02:03:00",9.3,8.7,0.0,0.0,1023.7
"2014-06-19 02:04:00",9.3,8.7,0.0,0.0,1023.7
"2014-06-19 02:05:00",9.3,8.7,0.0,0.0,1023.7
"2014-06-19 02:06:00",9.3,8.7,0.0,0.0,1023.7
"2014-06-19 02:07:00",9.3,8.7,0.0,0.0,1023.7
"2014-06-19 02:08:00",9.3,8.7,0.0,0.0,1023.6
"2014-06-19 02:09:00",9.3,8.7,0.0,0.0,1023.6
"2014-06-19 02:10:00",9.3,8.7,0.0,0.0,1023.6
"2014-06-19 02:11:00",9.3,8.7,0.0,0.0,1023.6
"2014-06-19 02:12:00",9.2,8.6,0.0,0.0,1023.5
"2014-06-19 02:13:00",9.2,8.6,0.0,0.0,1023.6
"2014-06-19 02:14:00",9.2,8.6,0.0,0.0,1023.6
"2014-06-19 02:15:00",9.2,8.6,0.0,0.0,1023.6
"2014-06-19 02:16:00",9.2,8.6,0.0,0.0,1023.6
"2014-06-19 02:17:00",9.2,8.6,0.0,0.0,1023.5
"2014-06-19 02:18:00",9.2,8.6,0.0,0.0,1023.5
"2014-06-19 02:19:00",9.1,8.5,0.0,0.0,1023.5
"2014-06-19 02:20:00",9.1,8.5,0.0,0.0,1023.5
"2014-06-19 02:21:00",9.1,8.5,0.0,0.0,1023.5
"2014-06-19 02:22:00",9.1,8.5,0.0,0.0,1023.5
"2014-06-19 02:23:00",9.2,8.6,0.0,0.0,1023.4
"2014-06-19 02:24:00",9.2,8.6,0.0,0.0,1023.3
"2014-06-19 02:25:00",9.2,8.6,0.0,0.0,1023.3
"2014-06-19 02:26:00",9.1,8.5,0.0,0.0,1023.4
"2014-06-19 02:27:00",9.1,8.5,0.0,0.0,1023.3
"2014-06-19 02:28:00",9.1,8.5,0.0,0.0,1023.4
"2014-06-19 02:29:00",9.1,8.5,0.0,0.0,1023.3
"2014-06-19 02:30:00",9.2,8.6,0.0,0.0,1023.4
"2014-06-19 02:31:00",9.2,8.6,0.0,0.0,1023.3
"2014-06-19 02:32:00",9.2,8.6,0.0,0.0,1023.4
"2014-06-19 02:33:00",9.2,8.5,0.0,0.0,1023.3
"2014-06-19 02:34:00",9.1,8.5,0.0,0.0,1023.4
"2014-06-19 02:35:00",9.2,8.6,0.0,0.0,1023.4
"2014-06-19 02:36:00",9.2,8.6,0.0,0.0,1023.3
"2014-06-19 02:37:00",9.2,8.6,0.0,0.0,1023.4
"2014-06-19 02:38:00",9.2,8.6,0.0,0.0,1023.4
"2014-06-19 02:39:00",9.2,8.6,0.0,0.0,1023.4
"2014-06-19 02:40:00",9.1,8.5,0.0,0.0,1023.4
"2014-06-19 02:41:00",9.1,8.5,0.0,0.0,1023.3
"2014-06-19 02:42:00",9.1,8.5,0.0,0.0,1023.3
"2014-06-19 02:43:00",9.0,8.4,0.0,0.0,1023.3
"2014-06-19 02:44:00",9.0,8.4,0.0,0.0,1023.3
"2014-06-19 02:45:00",9.0,8.4,0.0,0.0,1023.3
"2014-06-19 02:46:00",9.0,8.4,0.0,0.0,1023.3
"2014-06-19 02:47:00",9.0,8.4,0.0,0.0,1023.3
"2014-06-19 02:48:00",9.1,8.6,0.0,0.0,1023.3
"2014-06-19 02:49:00",9.1,8.5,0.0,0.0,1023.3
"2014-06-19 02:50:00",9.0,8.4,0.0,0.0,1023.3
"2014-06-19 02:51:00",9.0,8.4,0.0,0.0,1023.3
"2014-06-19 02:52:00",9.0,8.4,0.0,0.0,1023.3
"2014-06-19 02:53:00",9.0,8.4,0.0,0.0,1023.3
"2014-06-19 02:54:00",8.9,8.3,0.0,0.0,1023.3
"2014-06-19 02:55:00",8.9,8.3,0.0,0.0,1023.2
"2014-06-19 02:56:00",8.9,8.3,0.0,0.0,1023.3
"2014-06-19 02:57:00",8.9,8.3,0.0,0.0,1023.2
"2014-06-19 02:58:00",8.9,8.3,0.0,0.0,1023.3
"2014-06-19 02:59:00",8.9,8.3,0.0,0.0,1023.2
"2014-06-19 03:00:00",8.9,8.3,0.0,0.0,1023.2
"2014-06-19 03:01:00",8.9,8.3,0.0,0.0,1023.2
"2014-06-19 03:02:00",8.9,8.3,0.0,0.0,1023.2
"2014-06-19 03:03:00",8.9,8.3,0.0,0.0,1023.2
"2014-06-19 03:04:00",8.9,8.3,0.0,0.0,1023.1
"2014-06-19 03:05:00",8.9,8.3,0.0,0.0,1023.1
"2014-06-19 03:06:00",8.9,8.3,0.0,0.0,1023.1
"2014-06-19 03:07:00",8.8,8.2,0.0,0.0,1023.1
"2014-06-19 03:08:00",8.8,8.2,0.0,0.0,1023.1
"2014-06-19 03:09:00",8.8,8.2,0.0,0.0,1023.2
"2014-06-19 03:10:00",8.8,8.2,0.0,0.0,1023.1
"2014-06-19 03:11:00",8.8,8.2,0.0,0.0,1023.1
"2014-06-19 03:12:00",8.8,8.2,0.0,0.0,1023.1
"2014-06-19 03:13:00",8.8,8.2,0.0,0.0,1023.1
"2014-06-19 03:14:00",8.8,8.2,0.0,0.0,1023.1
"2014-06-19 03:15:00",8.8,8.3,0.0,0.0,1023.1
"2014-06-19 03:16:00",8.8,8.4,0.0,0.0,1023.1
"2014-06-19 03:17:00",8.8,8.4,0.0,0.0,1023.1
"2014-06-19 03:18:00",8.8,8.3,0.0,0.0,1023.1
"2014-06-19 03:19:00",8.8,8.2,0.0,0.0,1023.0
"2014-06-19 03:20:00",8.8,8.2,0.0,0.0,1023.0
"2014-06-19 03:21:00",8.8,8.2,0.0,0.0,1023.0
"2014-06-19 03:22:00",8.8,8.3,0.0,0.0,1023.1
"2014-06-19 03:23:00",8.8,8.3,0.0,0.0,1023.1
"2014-06-19 03:24:00",8.8,8.3,0.0,0.0,1023.0
"2014-06-19 03:25:00",8.8,8.3,0.0,0.0,1023.1
"2014-06-19 03:26:00",8.8,8.3,0.0,0.0,1023.1
"2014-06-19 03:27:00",8.8,8.3,0.0,0.0,1023.0
"2014-06-19 03:28:00",8.7,8.3,0.0,0.0,1023.0
"2014-06-19 03:29:00",8.7,8.1,0.0,0.0,1023.0
"2014-06-19 03:30:00",8.7,8.1,0.0,0.0,1023.0
"2014-06-19 03:31:00",8.7,8.1,0.0,0.0,1023.0
"2014-06-19 03:32:00",8.7,8.1,0.0,0.0,1023.0
"2014-06-19 03:33:00",8.7,8.2,0.0,0.0,1023.0
"2014-06-19 03:34:00",8.7,8.2,0.0,0.0,1023.0
"2014-06-19 03:35:00",8.7,8.2,0.0,0.0,1023.0
"2014-06-19 03:36:00",8.7,8.2,0.0,0.0,1023.0
"2014-06-19 03:37:00",8.7,8.2,0.0,0.0,1023.0
"2014-06-19 03:38:00",8.7,8.2,0.0,0.0,1023.0
"2014-06-19 03:39:00",8.7,8.2,0.0,0.0,1023.0
"2014-06-19 03:40:00",8.7,8.0,0.0,0.0,1023.0
"2014-06-19 03:41:00",8.6,8.0,0.0,0.0,1023.0
"2014-06-19 03:42:00",8.6,8.0,0.0,0.0,1023.0
"2014-06-19 03:43:00",8.6,8.0,0.0,0.0,1023.0
"2014-06-19 03:44:00",8.6,8.0,0.0,0.0,1023.0
"2014-06-19 03:45:00",8.6,8.0,0.0,0.0,1023.0
"2014-06-19 03:46:00",8.6,8.0,0.0,0.0,1023.0
"2014-06-19 03:47:00",8.6,8.2,0.0,0.0,1023.0
"2014-06-19 03:48:00",8.6,8.2,0.0,0.0,1023.0
"2014-06-19 03:49:00",8.7,8.2,0.0,0.0,1023.0
"2014-06-19 03:50:00",8.7,8.2,0.0,0.0,1023.0
"2014-06-19 03:51:00",8.7,8.2,0.0,0.0,1023.0
"2014-06-19 03:52:00",8.7,8.2,0.0,0.0,1022.9
"2014-06-19 03:53:00",8.7,8.3,0.0,0.0,1022.9
"2014-06-19 03:54:00",8.7,8.3,0.0,0.0,1022.9
"2014-06-19 03:55:00",8.7,8.3,0.0,0.0,1022.9
"2014-06-19 03:56:00",8.8,8.3,0.0,0.0,1022.9
"2014-06-19 03:57:00",8.8,8.3,0.0,0.0,1022.9
"2014-06-19 03:58:00",8.8,8.3,0.0,0.0,1022.9
"2014-06-19 03:59:00",8.8,8.4,0.0,0.0,1022.9
"2014-06-19 04:00:00",8.8,8.4,0.0,0.0,1022.9
"2014-06-19 04:01:00",8.8,8.4,0.0,0.0,1022.9
"2014-06-19 04:02:00",8.8,8.4,0.0,0.0,1022.8
"2014-06-19 04:03:00",8.8,8.4,0.0,0.0,1022.8
"2014-06-19 04:04:00",8.8,8.4,0.0,0.0,1022.8
"2014-06-19 04:05:00",8.8,8.4,0.0,0.0,1022.8
"2014-06-19 04:06:00",8.8,8.4,0.0,0.0,1022.8
"2014-06-19 04:07:00",8.8,8.4,0.0,0.0,1022.8
"2014-06-19 04:08:00",8.8,8.4,0.0,0.0,1022.8
"2014-06-19 04:09:00",8.8,8.4,0.0,0.0,1022.8
"2014-06-19 04:10:00",8.8,8.4,0.0,0.0,1022.7
"2014-06-19 04:11:00",8.8,8.4,0.0,0.0,1022.7
"2014-06-19 04:12:00",8.8,8.4,0.0,0.0,1022.8
"2014-06-19 04:13:00",8.8,8.4,0.0,0.0,1022.8
"2014-06-19 04:14:00",8.8,8.3,0.0,0.0,1022.7
"2014-06-19 04:15:00",8.8,8.4,0.0,0.0,1022.7
"2014-06-19 04:16:00",8.8,8.3,0.0,0.0,1022.7
"2014-06-19 04:17:00",8.8,8.3,0.0,0.0,1022.7
"2014-06-19 04:18:00",8.7,8.3,0.0,0.0,1022.7
"2014-06-19 04:19:00",8.7,8.3,0.0,0.0,1022.7
"2014-06-19 04:20:00",8.7,8.2,0.0,0.0,1022.7
"2014-06-19 04:21:00",8.7,8.2,0.0,0.0,1022.7
"2014-06-19 04:22:00",8.7,8.1,0.0,0.0,1022.6
"2014-06-19 04:23:00",8.6,8.0,0.0,0.0,1022.6
"2014-06-19 04:24:00",8.6,8.0,0.0,0.0,1022.6
"2014-06-19 04:25:00",8.6,8.2,0.0,0.0,1022.6
"2014-06-19 04:26:00",8.7,8.2,0.0,0.0,1022.6
"2014-06-19 04:27:00",8.7,8.2,0.0,0.0,1022.6
"2014-06-19 04:28:00",8.7,8.2,0.0,0.0,1022.6
"2014-06-19 04:29:00",8.7,8.2,0.0,0.0,1022.6
"2014-06-19 04:30:00",8.7,8.2,0.0,0.0,1022.6
"2014-06-19 04:31:00",8.7,8.2,0.0,0.0,1022.6
"2014-06-19 04:32:00",8.7,8.2,0.0,0.0,1022.6
"2014-06-19 04:33:00",8.7,8.2,0.0,0.0,1022.6
"2014-06-19 04:34:00",8.7,8.2,0.0,0.0,1022.6
"2014-06-19 04:35:00",8.7,8.2,0.0,0.0,1022.6
"2014-06-19 04:36:00",8.6,8.2,0.0,0.0,1022.6
"2014-06-19 04:37:00",8.6,8.0,0.0,0.0,1022.6
"2014-06-19 04:38:00",8.6,8.0,0.0,0.0,1022.6
"2014-06-19 04:39:00",8.6,8.2,0.0,0.0,1022.6
"2014-06-19 04:40:00",8.6,8.2,0.0,0.0,1022.6
"2014-06-19 04:41:00",8.6,8.2,0.0,0.0,1022.6
"2014-06-19 04:42:00",8.6,8.2,0.0,0.0,1022.6
"2014-06-19 04:43:00",8.6,8.2,0.0,0.0,1022.6
"2014-06-19 04:44:00",8.6,8.2,0.0,0.0,1022.6
"2014-06-19 04:45:00",8.6,8.2,0.0,0.0,1022.6
"2014-06-19 04:46:00",8.6,8.1,0.0,0.0,1022.6
"2014-06-19 04:47:00",8.6,8.2,0.0,0.0,1022.6
"2014-06-19 04:48:00",8.6,8.2,0.0,0.0,1022.6
"2014-06-19 04:49:00",8.6,8.2,0.0,0.0,1022.5
"2014-06-19 04:50:00",8.6,8.2,0.0,0.0,1022.6
"2014-06-19 04:51:00",8.6,8.2,0.0,0.0,1022.6
"2014-06-19 04:52:00",8.7,8.2,0.0,0.0,1022.6
"2014-06-19 04:53:00",8.7,8.2,0.0,0.0,1022.6
"2014-06-19 04:54:00",8.7,8.2,0.0,0.0,1022.6
"2014-06-19 04:55:00",8.7,8.2,0.0,0.0,1022.5
"2014-06-19 04:56:00",8.6,8.2,0.0,0.0,1022.6
"2014-06-19 04:57:00",8.6,8.2,0.0,0.0,1022.6
"2014-06-19 04:58:00",8.7,8.2,0.0,0.0,1022.6
"2014-06-19 04:59:00",8.7,8.2,0.0,0.0,1022.5
"2014-06-19 05:00:00",8.7,8.2,0.0,0.0,1022.5
"2014-06-19 05:01:00",8.7,8.2,0.0,0.0,1022.5
"2014-06-19 05:02:00",8.7,8.2,0.0,0.0,1022.5
"2014-06-19 05:03:00",8.7,8.2,0.0,0.0,1022.6
"2014-06-19 05:04:00",8.7,8.2,0.0,0.0,1022.5
"2014-06-19 05:05:00",8.7,8.2,0.0,0.0,1022.5
"2014-06-19 05:06:00",8.7,8.2,0.0,0.0,1022.6
"2014-06-19 05:07:00",8.7,8.2,0.0,0.0,1022.5
"2014-06-19 05:08:00",8.7,8.2,0.0,0.0,1022.5
"2014-06-19 05:09:00",8.7,8.2,0.0,0.0,1022.5
"2014-06-19 05:10:00",8.7,8.2,0.0,0.0,1022.5
"2014-06-19 05:11:00",8.7,8.2,0.0,0.0,1022.5
"2014-06-19 05:12:00",8.6,8.2,0.0,0.0,1022.4
"2014-06-19 05:13:00",8.6,8.2,0.0,0.0,1022.5
"2014-06-19 05:14:00",8.6,8.2,0.0,0.0,1022.4
"2014-06-19 05:15:00",8.6,8.2,0.0,0.0,1022.4
"2014-06-19 05:16:00",8.6,8.2,0.0,0.0,1022.4
"2014-06-19 05:17:00",8.6,8.2,0.0,0.0,1022.4
"2014-06-19 05:18:00",8.6,8.2,0.0,0.0,1022.4
"2014-06-19 05:19:00",8.6,8.2,0.0,0.0,1022.4
"2014-06-19 05:20:00",8.6,8.2,0.0,0.0,1022.4
"2014-06-19 05:21:00",8.6,8.2,0.0,0.0,1022.4
"2014-06-19 05:22:00",8.6,8.2,0.0,0.0,1022.4
"2014-06-19 05:23:00",8.6,8.2,0.0,0.0,1022.4
"2014-06-19 05:24:00",8.6,8.2,0.0,0.0,1022.4
"2014-06-19 05:25:00",8.6,8.2,0.0,0.0,1022.4
"2014-06-19 05:26:00",8.6,8.2,0.0,0.0,1022.4
"2014-06-19 05:27:00",8.6,8.2,0.0,0.0,1022.4
"2014-06-19 05:28:00",8.6,8.2,0.0,0.0,1022.4
"2014-06-19 05:29:00",8.7,8.2,0.0,0.0,1022.4
"2014-06-19 05:30:00",8.7,8.2,0.0,0.0,1022.4
"2014-06-19 05:31:00",8.7,8.2,0.0,0.0,1022.4
"2014-06-19 05:32:00",8.7,8.2,0.0,0.0,1022.4
"2014-06-19 05:33:00",8.7,8.2,0.0,0.0,1022.4
"2014-06-19 05:34:00",8.7,8.2,0.0,0.0,1022.4
"2014-06-19 05:35:00",8.7,8.2,0.0,0.0,1022.4
"2014-06-19 05:36:00",8.7,8.3,0.0,0.0,1022.4
"2014-06-19 05:37:00",8.7,8.3,0.0,0.0,1022.4
"2014-06-19 05:38:00",8.7,8.3,0.0,0.0,1022.4
"2014-06-19 05:39:00",8.7,8.3,0.0,0.0,1022.4
"2014-06-19 05:40:00",8.7,8.3,0.0,0.0,1022.4
"2014-06-19 05:41:00",8.7,8.3,0.0,0.0,1022.4
"2014-06-19 05:42:00",8.7,8.3,0.0,0.0,1022.4
"2014-06-19 05:43:00",8.7,8.3,0.0,0.0,1022.4
"2014-06-19 05:44:00",8.7,8.3,0.0,0.0,1022.4
"2014-06-19 05:45:00",8.7,8.3,0.0,0.0,1022.4
"2014-06-19 05:46:00",8.7,8.3,0.0,0.0,1022.3
"2014-06-19 05:47:00",8.7,8.3,0.0,0.0,1022.4
"2014-06-19 05:48:00",8.8,8.3,0.0,0.0,1022.4
"2014-06-19 05:49:00",8.8,8.3,0.0,0.0,1022.3
"2014-06-19 05:50:00",8.8,8.3,0.0,0.0,1022.3
"2014-06-19 05:51:00",8.8,8.3,0.0,0.0,1022.3
"2014-06-19 05:52:00",8.8,8.3,0.0,0.0,1022.3
"2014-06-19 05:53:00",8.8,8.4,0.0,0.0,1022.3
"2014-06-19 05:54:00",8.8,8.4,0.0,0.0,1022.3
"2014-06-19 05:55:00",8.9,8.4,0.0,0.0,1022.3
"2014-06-19 05:56:00",8.9,8.4,0.0,0.0,1022.3
"2014-06-19 05:57:00",8.9,8.4,0.0,0.0,1022.3
"2014-06-19 05:58:00",8.9,8.5,0.0,0.0,1022.3
"2014-06-19 05:59:00",8.9,8.5,0.0,0.0,1022.3
"2014-06-19 06:00:00",8.9,8.5,0.0,0.0,1022.3
"2014-06-19 06:01:00",9.0,8.5,0.0,0.0,1022.3
"2014-06-19 06:02:00",9.0,8.5,0.0,0.0,1022.3
"2014-06-19 06:03:00",9.1,8.6,0.0,0.0,1022.3
"2014-06-19 06:04:00",9.1,8.6,0.0,0.0,1022.3
"2014-06-19 06:05:00",9.1,8.6,0.0,0.0,1022.3
"2014-06-19 06:07:00",9.1,8.7,0.0,0.0,1022.3
"2014-06-19 06:08:00",9.2,8.7,0.0,0.0,1022.3
"2014-06-19 06:09:00",9.2,8.7,0.0,0.0,1022.2
"2014-06-19 06:10:00",9.2,8.8,0.0,0.0,1022.3
"2014-06-19 06:11:00",9.2,8.8,0.0,0.0,1022.2
"2014-06-19 06:12:00",9.3,8.8,0.0,0.0,1022.2
"2014-06-19 06:13:00",9.3,8.8,0.0,0.0,1022.2
"2014-06-19 06:14:00",9.3,8.9,0.0,0.0,1022.2
"2014-06-19 06:15:00",9.3,8.9,0.0,0.0,1022.2
"2014-06-19 06:16:00",9.4,8.9,0.0,0.0,1022.2
"2014-06-19 06:17:00",9.4,8.9,0.0,0.0,1022.2
"2014-06-19 06:18:00",9.4,9.0,0.0,0.0,1022.2
"2014-06-19 06:19:00",9.4,9.0,0.0,0.0,1022.2
"2014-06-19 06:20:00",9.5,9.0,0.0,0.0,1022.2
"2014-06-19 06:21:00",9.5,9.0,0.0,0.0,1022.2
"2014-06-19 06:22:00",9.5,9.1,0.0,0.0,1022.3
"2014-06-19 06:23:00",9.6,9.1,0.0,0.0,1022.3
"2014-06-19 06:24:00",9.6,9.1,0.0,0.0,1022.3
"2014-06-19 06:25:00",9.6,9.2,0.0,0.0,1022.3
"2014-06-19 06:26:00",9.6,9.2,0.0,0.0,1022.3
"2014-06-19 06:27:00",9.7,9.2,0.0,0.0,1022.3
"2014-06-19 06:28:00",9.7,9.2,0.0,0.0,1022.3
"2014-06-19 06:29:00",9.7,9.3,0.0,0.0,1022.3
"2014-06-19 06:30:00",9.8,9.3,0.0,0.0,1022.4
"2014-06-19 06:31:00",9.8,9.3,0.0,0.0,1022.3
"2014-06-19 06:32:00",9.8,9.4,0.0,0.0,1022.3
"2014-06-19 06:33:00",9.9,9.4,0.0,0.0,1022.3
"2014-06-19 06:34:00",9.9,9.5,0.0,0.0,1022.3
"2014-06-19 06:35:00",10.0,9.5,0.0,0.0,1022.4
"2014-06-19 06:36:00",10.0,9.6,0.0,0.0,1022.3
"2014-06-19 06:37:00",10.1,9.6,0.0,0.0,1022.3
"2014-06-19 06:38:00",10.1,9.7,0.0,0.0,1022.3
"2014-06-19 06:39:00",10.2,9.7,0.0,0.0,1022.3
"2014-06-19 06:40:00",10.2,9.8,0.0,0.0,1022.2
"2014-06-19 06:41:00",10.3,9.8,0.0,0.0,1022.2
"2014-06-19 06:42:00",10.3,9.9,0.0,0.0,1022.2
"2014-06-19 06:43:00",10.3,9.9,0.0,0.0,1022.2
"2014-06-19 06:44:00",10.4,9.9,0.0,0.0,1022.2
"2014-06-19 06:45:00",10.4,10.0,0.0,0.0,1022.2
"2014-06-19 06:46:00",10.5,10.0,0.0,0.0,1022.2
"2014-06-19 06:47:00",10.5,10.1,0.0,0.0,1022.2
"2014-06-19 06:48:00",10.6,10.1,0.0,0.0,1022.2
"2014-06-19 06:49:00",10.6,10.2,0.0,0.0,1022.2
"2014-06-19 06:50:00",10.7,10.2,0.0,0.0,1022.2
"2014-06-19 07:08:00",11.5,10.9,0.0,0.0,1022.3
"2014-06-19 07:09:00",11.6,11.0,0.0,0.0,1022.3
"2014-06-19 07:10:00",11.7,11.0,0.0,0.0,1022.3
"2014-06-19 07:11:00",11.7,11.1,0.0,0.0,1022.2
"2014-06-19 07:14:00",12.0,11.4,0.0,0.6,1022.3
"2014-06-19 07:15:00",12.1,11.5,0.0,0.7,1022.2
"2014-06-19 07:16:00",12.1,11.5,0.0,0.7,1022.2
"2014-06-19 07:17:00",12.2,11.6,0.0,0.7,1022.2
"2014-06-19 07:18:00",12.3,11.7,0.0,0.7,1022.2
"2014-06-19 07:19:00",12.3,11.7,0.0,0.7,1022.2
"2014-06-19 07:20:00",12.4,11.8,0.0,0.7,1022.2
"2014-06-19 07:21:00",12.4,11.8,0.0,0.7,1022.2
"2014-06-19 07:22:00",12.5,11.9,0.0,0.7,1022.2
"2014-06-19 07:23:00",12.6,12.0,0.0,0.7,1022.2
"2014-06-19 07:24:00",12.7,12.1,0.0,0.7,1022.2
"2014-06-19 07:25:00",12.8,12.0,0.0,0.8,1022.2
"2014-06-19 07:26:00",12.9,12.1,0.0,0.8,1022.2
"2014-06-19 07:27:00",13.0,12.2,0.0,0.8,1022.3
"2014-06-19 07:28:00",13.1,12.3,0.0,0.8,1022.2
"2014-06-19 07:29:00",13.2,12.4,0.0,0.8,1022.3
"2014-06-19 07:30:00",13.3,12.5,0.0,0.8,1022.3
"2014-06-19 07:31:00",13.4,12.6,0.0,0.9,1022.2
"2014-06-19 07:32:00",13.5,12.7,0.0,0.9,1022.2
"2014-06-19 07:33:00",13.6,12.8,0.0,0.9,1022.2
"2014-06-19 07:34:00",13.7,12.9,0.0,0.9,1022.3
"2014-06-19 07:35:00",13.7,12.9,0.0,0.9,1022.3
"2014-06-19 07:36:00",13.8,13.0,0.0,1.0,1022.3
"2014-06-19 07:37:00",13.8,13.0,0.0,1.0,1022.3
"2014-06-19 07:38:00",13.9,13.1,0.0,1.0,1022.3
"2014-06-19 07:39:00",13.9,13.2,0.0,1.0,1022.3
"2014-06-19 07:40:00",14.0,13.2,0.0,1.0,1022.3
"2014-06-19 07:41:00",14.1,13.3,0.0,1.0,1022.3
"2014-06-19 07:42:00",14.2,13.2,0.0,1.0,1022.3
"2014-06-19 07:43:00",14.2,13.3,0.0,1.1,1022.3
"2014-06-19 07:44:00",14.3,13.5,0.0,1.1,1022.3
"2014-06-19 07:45:00",14.4,13.4,0.0,1.1,1022.3
"2014-06-19 07:46:00",14.5,13.5,0.0,1.1,1022.3
"2014-06-19 07:47:00",14.5,13.6,0.0,1.1,1022.3
"2014-06-19 07:48:00",14.7,13.7,0.0,1.2,1022.3
"2014-06-19 07:49:00",14.8,13.8,0.0,1.2,1022.3
"2014-06-19 07:50:00",14.9,13.8,0.0,1.2,1022.3
"2014-06-19 07:51:00",15.0,13.8,0.0,1.2,1022.3
"2014-06-19 07:52:00",15.1,13.8,0.0,1.2,1022.3
"2014-06-19 07:53:00",15.2,13.8,0.0,1.2,1022.2
"2014-06-19 07:54:00",15.3,13.7,0.0,1.2,1022.3
"2014-06-19 07:55:00",15.5,13.8,0.0,1.2,1022.2
"2014-06-19 07:56:00",15.5,13.9,0.0,1.2,1022.3
"2014-06-19 07:57:00",15.6,13.8,0.0,1.2,1022.3
"2014-06-19 07:58:00",15.6,13.8,0.0,1.2,1022.3
"2014-06-19 07:59:00",15.7,13.9,0.0,1.0,1022.3
"2014-06-19 08:00:00",15.7,13.9,0.0,1.0,1022.3
"2014-06-19 08:01:00",15.8,13.9,0.0,1.0,1022.3
"2014-06-19 08:02:00",15.8,14.0,0.0,1.0,1022.2
"2014-06-19 08:03:00",15.9,14.1,0.0,1.0,1022.2
"2014-06-19 08:04:00",16.0,14.2,0.0,1.0,1022.3
"2014-06-19 08:05:00",16.0,14.4,0.0,1.0,1022.2
"2014-06-19 08:06:00",16.0,14.4,0.0,1.0,1022.2
"2014-06-19 08:07:00",15.9,14.3,0.0,1.4,1022.2
"2014-06-19 08:08:00",15.9,14.3,0.0,1.4,1022.2
"2014-06-19 08:09:00",15.9,14.3,0.0,1.4,1022.2
"2014-06-19 08:10:00",15.9,14.3,0.0,1.4,1022.3
"2014-06-19 08:11:00",16.0,14.2,0.0,1.4,1022.3
"2014-06-19 08:12:00",16.1,14.4,0.0,1.4,1022.3
"2014-06-19 08:13:00",16.1,14.2,0.0,1.4,1022.3
"2014-06-19 08:14:00",16.1,14.3,0.0,1.4,1022.3
"2014-06-19 08:15:00",16.3,14.6,0.0,1.4,1022.3
"2014-06-19 08:16:00",16.4,14.5,0.0,1.0,1022.3
"2014-06-19 08:17:00",16.4,14.6,0.0,1.0,1022.2
"2014-06-19 08:18:00",16.4,14.6,0.0,1.0,1022.2
"2014-06-19 08:19:00",16.4,14.6,0.0,1.2,1022.2
"2014-06-19 08:20:00",16.5,14.5,0.0,1.2,1022.2
"2014-06-19 08:21:00",16.5,14.5,0.0,1.2,1022.2
"2014-06-19 08:22:00",16.6,14.8,0.0,1.2,1022.2
"2014-06-19 08:23:00",16.6,14.8,0.0,1.2,1022.2
"2014-06-19 08:24:00",16.7,14.7,0.0,1.2,1022.2
"2014-06-19 08:25:00",16.7,14.7,0.0,1.2,1022.2
"2014-06-19 08:26:00",16.8,14.8,0.0,1.2,1022.1
"2014-06-19 08:27:00",16.8,15.0,0.0,1.2,1022.1
"2014-06-19 08:28:00",16.8,14.8,0.0,1.2,1022.1
"2014-06-19 08:29:00",16.8,15.0,0.0,1.2,1022.1
"2014-06-19 08:30:00",16.8,14.8,0.0,1.2,1022.1
"2014-06-19 08:31:00",16.8,14.8,0.0,1.0,1022.1
"2014-06-19 08:32:00",16.8,14.6,0.0,1.0,1022.1
"2014-06-19 08:33:00",16.8,14.5,0.0,1.0,1022.0
"2014-06-19 08:34:00",16.9,14.4,0.0,1.0,1022.1
"2014-06-19 08:35:00",17.0,14.6,0.0,1.4,1022.1
"2014-06-19 08:36:00",17.0,14.5,0.0,1.4,1022.1
"2014-06-19 08:37:00",17.0,14.5,0.0,1.5,1022.1
"2014-06-19 08:38:00",17.1,14.7,0.0,1.6,1022.1
"2014-06-19 08:39:00",17.1,14.5,0.0,1.6,1022.1
"2014-06-19 08:40:00",17.1,14.5,0.0,1.8,1022.1
"2014-06-19 08:41:00",17.1,14.5,0.0,1.8,1022.1
"2014-06-19 08:42:00",17.1,14.5,0.0,1.7,1022.1
"2014-06-19 08:43:00",17.1,14.5,0.0,1.6,1022.1
"2014-06-19 08:44:00",17.1,14.7,0.0,1.5,1022.1
"2014-06-19 08:45:00",17.1,14.6,0.0,1.6,1022.1
"2014-06-19 08:46:00",17.2,14.6,0.0,1.4,1022.0
"2014-06-19 08:47:00",17.2,14.7,0.0,1.4,1022.0
"2014-06-19 08:48:00",17.3,14.7,0.0,1.4,1022.0
"2014-06-19 08:49:00",17.3,14.8,0.0,1.4,1022.0
"2014-06-19 08:50:00",17.3,14.8,0.0,1.4,1022.0
"2014-06-19 08:51:00",17.4,15.0,0.0,1.4,1022.0
"2014-06-19 08:52:00",17.5,15.1,0.0,1.4,1022.0
"2014-06-19 08:53:00",17.5,15.0,0.0,1.4,1022.0
"2014-06-19 08:54:00",17.6,14.9,0.0,1.4,1021.9
"2014-06-19 08:55:00",17.7,15.1,0.0,1.4,1021.9
"2014-06-19 08:56:00",17.7,15.2,0.0,1.4,1021.9
"2014-06-19 08:57:00",17.8,15.0,0.0,1.5,1021.9
"2014-06-19 08:58:00",17.8,15.0,0.0,1.4,1021.9
"2014-06-19 08:59:00",17.8,15.2,0.0,1.4,1021.9
"2014-06-19 09:00:00",17.8,15.3,0.0,1.4,1021.9
"2014-06-19 09:01:00",17.9,15.3,0.0,1.4,1021.9
"2014-06-19 09:02:00",17.9,15.1,0.0,1.4,1021.9
"2014-06-19 09:03:00",17.9,15.2,0.0,1.4,1022.0
"2014-06-19 09:04:00",18.0,15.2,0.0,1.4,1022.0
"2014-06-19 09:05:00",18.0,15.3,0.0,1.4,1022.0